Notices

What's New in latest Release from April 7th, 2021:

- Updated Glossary, including Speed of Maximum Gust, and Total Hourly Precipitation

- Updated national and regional climate services offices contacts and prices information

- Addition of station inventory lists for 1981-2010, 1971-2000, and 1961-1990 Normals.

If you haven't already, please take our survey and provide feedback about our website: https://eccc.sondage-survey.ca/f/LanguageSelection.aspx?s=442ca660-fcf1-47c0-95a9-59707d6fd709

Hourly Data Report for November 10, 2004

SHERBROOKE A
QUEBEC

45°26'00.000" N
71°41'00.000" W
241.40 m
7028124
71610
YSC

Download Data

Hourly Data (November 2004)
Hourly Data Report for November 10, 2004
TIME
LST
Temp Definition
°C
Dew Point Definition
°C
Rel Hum Definition
%
Precip. Amount Definition
mm

Wind Dir Definition
10's deg

Wind Spd Definition
km/h
Visibility Definition
km
Stn Press Definition
kPa
Hmdx Definition


Wind Chill Definition


Weather Definition


00:00 -10.0 -11.9 86     0 15.0 100.29      
01:00 -10.6 -12.6 85   8 4 15.0 100.32   -13  
02:00 -10.8 -12.9 84     0 15.0 100.35      
03:00 -11.6 -13.4 86     0 15.0 100.38      
04:00 -11.8 -13.8 85   9 4 15.0 100.39   -14  
05:00 -11.7 -13.7 85   9 4 15.0 100.38   -14  
06:00 -11.1 -13.0 86   9 6 15.0 100.38   -15  
07:00 -9.7 -11.7 85   9 4 15.0 100.42   -12  
08:00 -9.1 -11.2 85   9 4 24.1 100.40   -11 Mainly Clear
09:00 -5.7 -8.3 82     0 24.1 100.36     Mainly Clear
10:00 -2.8 -7.2 72   22 6 24.1 100.28   -5 Mostly Cloudy
11:00 -2.1 -9.8 56   18 13 24.1 100.19   -7 Mostly Cloudy
12:00 -2.4 -10.0 56   17 15 24.1 100.05   -7 Cloudy
13:00 -1.9 -10.2 53   18 17 24.1 99.96   -7 Cloudy
14:00 -1.4 -10.3 51   19 17 24.1 99.83   -7 Cloudy
15:00 -0.7 -11.1 45   18 17 24.1 99.73   -6 Mostly Cloudy
16:00 -1.3 -11.8 45   18 15 24.1 99.65   -6 Mostly Cloudy
17:00 -2.1 -11.1 50   15 7 24.1 99.56   -5 Mostly Cloudy
18:00 -1.4 -11.0 48   16 7 15.0 99.49   -4  
19:00 -0.6 -10.7 46   17 6 15.0 99.41   -3  
20:00 0.1 -10.0 47   17 7 15.0 99.33      
21:00 0.0 -9.7 48   17 11 15.0 99.26   -4  
22:00 0.8 -9.2 47   18 9 15.0 99.20      
23:00 1.5 -8.1 49   17 7 15.0 99.15     Rain

Notes on Data Quality.

Legend

  • E = Estimated
  • M = Missing
  • NA = Not Available*
  • [empty] = Indicates an unobserved value
Date modified: